This is the latest recevied weather packets stored in our database for station/object KC7WRB. If no packets are shown the sender has not sent any weather packets the latest 10 day(s).
| Time | Temp. | Humidity | Pressure | Rain* | Wind** | Luminosity | Snow |
|---|---|---|---|---|---|---|---|
| 1778318090 | 10° C | 60% | 1020 hPa | 0 mm | - | 0 W/m² | - |
| 1778317787 | 10° C | 61% | 1020 hPa | 0 mm | - | 0 W/m² | - |
| 1778317484 | 9.44° C | 62% | 1019.8 hPa | 0 mm | - | 0 W/m² | - |
| 1778317182 | 10.56° C | 59% | 1020 hPa | 0 mm | - | 0 W/m² | - |
| 1778316879 | 10.56° C | 57% | 1020 hPa | 0 mm | - | 0 W/m² | - |
| 1778316575 | 11.67° C | 56% | 1019.9 hPa | 0 mm | - | 0 W/m² | - |
| 1778316272 | 11.67° C | 54% | 1019.8 hPa | 0 mm | - | 0 W/m² | - |
| 1778315969 | 11.11° C | 55% | 1019.8 hPa | 0 mm | - | 0 W/m² | - |
| 1778315666 | 11.11° C | 53% | 1019.8 hPa | 0 mm | - | 0 W/m² | - |
| 1778315363 | 10.56° C | 52% | 1019.7 hPa | 0 mm | - | 0 W/m² | - |
| 1778315061 | 10.56° C | 54% | 1019.9 hPa | 0 mm | - | 0 W/m² | - |
| 1778314757 | 11.11° C | 53% | 1019.7 hPa | 0 mm | - | 0 W/m² | - |
| 1778314455 | 10.56° C | 53% | 1019.5 hPa | 0 mm | - | 0 W/m² | - |
| 1778314152 | 10° C | 54% | 1019.8 hPa | 0 mm | - | 0 W/m² | - |
| 1778313850 | 10.56° C | 56% | 1019.9 hPa | 0 mm | - | 0 W/m² | - |
| 1778313548 | 11.11° C | 51% | 1020 hPa | 0 mm | - | 0 W/m² | - |
| 1778313244 | 11.11° C | 49% | 1019.9 hPa | 0 mm | - | 0 W/m² | - |
| 1778312942 | 11.67° C | 48% | 1019.8 hPa | 0 mm | - | 0 W/m² | - |
| 1778312639 | 11.11° C | 49% | 1019.8 hPa | 0 mm | - | 0 W/m² | - |
| 1778312335 | 11.11° C | 49% | 1019.9 hPa | 0 mm | - | 0 W/m² | - |
| 1778312032 | 11.11° C | 50% | 1019.9 hPa | 0 mm | - | 0 W/m² | - |
| 1778311729 | 11.11° C | 50% | 1019.8 hPa | 0 mm | - | 0 W/m² | - |
| 1778311425 | 11.67° C | 49% | 1019.7 hPa | 0 mm | - | 0 W/m² | - |
| 1778311122 | 11.11° C | 50% | 1019.7 hPa | 0 mm | - | 0 W/m² | - |
| 1778310819 | 11.11° C | 52% | 1019.8 hPa | 0 mm | - | 0 W/m² | - |
* Rain latest hour (hover to see other rain measurements)
** Current wind speed in m/s (hover to see current wind gust speed)